General Mitchell International Airport
KMKE : rendu visible

Aérodrome :











RETROUVEZ-NOUS SUR...

 
LOGIN :

S'inscrire | Disclaimer

   EN    FR    IT 

 









Légende :    VFR   VFR Marginal   IFR   IFR Intensif   IFR Très Intensif
Visi : 
Plafond : 
>= 8 km
>= 3000ft
5 à 8 km
1000 à 3000 ft
1500m à 5 km
500 à 1000 ft
800 à 1500m
200 à 500 ft
< 800m
< 200 ft
Symboles :   Orages  Brouillard  Fortes neiges  Fortes précipitations  Vent > 20 kt






- Altitude de l'aérodrome : 723 ft
- Code IATA : MKE


KMKE - General Mitchell International

DERNIER METAR :
  • 021452Z 13007KT 10SM FEW070 FEW250 08/01 A3020 RMK AO2 SLP232 T00830011 51005

METARs EXPIRÉS :
  • 021352Z 00000KT 10SM FEW070 07/03 A3020 RMK AO2 SLP233 T00670028
  • 021252Z 00000KT 10SM FEW120 FEW250 04/02 A3020 RMK AO2 SLP233 T00390017

TAF KMKE
Valide du 02 à 15h jusqu'au 03 à 18h UTC


021529Z 0215/0318 13006KT P6SM FEW250
FM021800 13008KT P6SM SCT250
FM022300 VRB04KT P6SM BKN250
FM030500 00000KT P6SM BKN090
FM031000 00000KT P6SM BKN070



MET'MAP, la Météo Aéronautique d'un coup d'oeil ! - Copyright ORBIFLY Décembre 2007 - Disclaimer

ORBIFLY MET'MAP TEAM :

Programmation & Développement : Alexandra Zaïnal
Sur une idée originale de : Baudouin d'Aumeries
Assistance à la programmation : Marc-Olivier Méhu
Soutien technique & logistique : Manuel Goepfert

Contact : metmap@orbifly.com




SOURCES & CREDITS :

   NOAA       Earth
Advisory